Hourly Data Report for July 30, 2021

OTTAWA INTL A
ONTARIO
Current Station Operator: NAVCAN

45°19'00.000" N
75°40'00.000" W
114.90 m
6106001
71628
YOW

Download Data

Hourly Data (July 2021)
Hourly Data Report for July 30, 2021
TIME
LST
Temp Definition
°C
Dew Point Definition
°C
Rel Hum Definition
%
Precip. Amount Definition
mm

Wind Dir Definition
10's deg

Wind Spd Definition
km/h
Visibility Definition
km
Stn Press Definition
kPa
Hmdx Definition


Wind Chill Definition


Weather Definition


00:00 16.1 15.4 96   25 5 24.1 99.42     LegendNANA
01:00 15.4 15.1 98   25 7 24.1 99.38     Mostly Cloudy
02:00 16.6 15.8 95   33 24 16.1 99.38     Rain Showers
03:00 15.9 15.0 94   32 17 24.1 99.42     LegendNANA
04:00 15.3 13.6 90   32 21 24.1 99.49     Mostly Cloudy
05:00 14.6 12.6 87   33 22 24.1 99.57     LegendNANA
06:00 14.0 11.5 85   32 34 24.1 99.67     LegendNANA
07:00 13.5 10.3 81   32 23 24.1 99.76     Mostly Cloudy
08:00 13.7 7.3 65   32 27 24.1 99.83     LegendNANA
09:00 14.8 6.6 58   30 27 24.1 99.85     LegendNANA
10:00 15.5 6.7 55   31 35 24.1 99.86     Mainly Clear
11:00 17.1 8.2 55   31 28 24.1 99.88     LegendNANA
12:00 17.4 7.7 52   31 38 24.1 99.91     LegendNANA
13:00 17.7 8.1 53   28 33 24.1 99.93     Mainly Clear
14:00 17.6 7.4 51   31 33 24.1 99.94     LegendNANA
15:00 18.4 6.9 47   30 33 24.1 99.94     LegendNANA
16:00 19.2 7.7 47   29 34 24.1 99.93     Mainly Clear
17:00 17.9 6.0 45   30 33 24.1 100.00     LegendNANA
18:00 16.5 6.4 51   31 26 24.1 100.05     LegendNANA
19:00 15.6 6.1 53   30 22 24.1 100.05     Mostly Cloudy
20:00 15.1 6.5 56   30 16 24.1 100.10     LegendNANA
21:00 14.2 7.2 62   28 14 24.1 100.12     LegendNANA
22:00 12.8 7.0 67   27 12 24.1 100.10     Clear
23:00 10.2 7.1 81   25 10 24.1 100.11     LegendNANA

Notes on Data Quality.

Legend

  • E = Estimated
  • M = Missing
  • NA = Not Available*
  • [empty] = Indicates an unobserved value
Date modified: